Location: Bannatyne
(13.0833°N, 59.5333°W)
Time: 04:22:46
(UTC+00:00)

deb Explorer IX - Pass Details

Date: 01 February 2020
Orbit: 549 x 1099 km, 38.8° (Epoch: 19 February)

Event Time Altitude Azimuth Distance (km) Brightness Sun altitude
Rises 05:25:18 0° 314° (NW) 3,896 - -71.7°
Reaches altitude 10° 05:28:08 10° 319° (NW) 2,942 - -71.1°
Maximum altitude 05:35:18 58° 37° (NE) 1,227 - -69.4°
Drops below altitude 10° 05:41:59 10° 115° (ESE) 2,757 - -67.8°
Sets 05:44:34 0° 119° (ESE) 3,636 - -67.2°
